Location: Alsip
(41.6689°N, 87.7387°W)
Time: 15:14:07
(UTC+00:00)

Spot 2 Rocket - Pass Details

Date: 14 July 2020
Orbit: 757 x 772 km, 98.6° (Epoch: 12 August)

Event Time Altitude Azimuth Distance (km) Brightness Sun altitude
Exits shadow 02:19:25 11° 136° (SE) 2,207 5.2 -9.2°
Maximum altitude 02:23:52 40° 69° (ENE) 1,128 4.2 -9.8°
Drops below altitude 10° 02:28:38 10° 1° (N) 2,326 6.6 -10.5°
Sets 02:31:03 0° 354° (N) 3,258 7.6 -10.8°
